Weather History for KHKS - November, 2012

Change the Weather History Date:

Sunday, November 11, 2012

  Actual Average (KJAN) Record (KJAN)
Temperature  
Mean Temperature 69 °F 57 °F  
Max Temperature 79 °F 69 °F 85 °F (1969)
Min Temperature 59 °F 45 °F 25 °F (1900)
Degree Days  
Heating Degree Days 0 9  
Month to date heating degree days 82  
Since 1 July heating degree days 189  
Cooling Degree Days 4 1  
Month to date cooling degree days 12  
Year to date cooling degree days 2243  
Growing Degree Days 19 (Base 50)    
Moisture  
Dew Point 57 °F    
Average Humidity 69    
Maximum Humidity 93    
Minimum Humidity 47    
Precipitation  
Precipitation 0.03 in 0.14 in 1.47 in (1935)
Month to date precipitation 1.53  
Year to date precipitation 45.76  
Sea Level Pressure  
Sea Level Pressure 30.09 in    
Wind  
Wind Speed 11 mph (SSE)    
Max Wind Speed 23 mph    
Max Gust Speed 32 mph    
Visibility 10 miles    
Events Rain    
T = Trace of Precipitation, MM = Missing Value Source: NWS Daily Summary

Daily Weather History Graph

Daily Weather History Graph

Search for Another Location

Airport or City:

Trip Planner

Search our weather history database for the weather conditions in past years. The results will help you decide how hot, cold, wet, or windy it might be!

Date:

Astronomy

Nov. 11, 2012 Rise Set
Actual Time 6:27 AM CST 5:02 PM CST
Civil Twilight 6:01 AM CST 5:28 PM CST
Nautical Twilight 5:31 AM CST 5:57 PM CST
Astronomical Twilight 5:02 AM CST 6:26 PM CST
Moon 3:48 AM CST (11/11) 3:20 PM CST (11/11)
Length of Visible Light 11h 27m
Length of Day
10h 35m
Waning Crescent, 7% of the Moon is Illuminated
Nov 11
Waning Crescent
Nov 13
New
Nov 20
First Quarter
Nov 28
Full
Dec 6
Last Quarter

Hourly Weather History & Observations

Time (CST) Temp. Dew Point Humidity Pressure Visibility Wind Dir Wind Speed Gust Speed Precip Events Conditions
12:53 AM 60.1 °F 52.0 °F 75% 30.13 in 10.0 mi SSE 5.8 mph - N/A   Clear
1:53 AM 59.0 °F 52.0 °F 78% 30.12 in 10.0 mi ESE 5.8 mph - N/A   Clear
2:53 AM 59.0 °F 53.1 °F 81% 30.12 in 10.0 mi SE 6.9 mph - N/A   Clear
3:53 AM 60.1 °F 55.0 °F 83% 30.11 in 10.0 mi SE 10.4 mph - N/A   Clear
4:53 AM 60.1 °F 55.9 °F 86% 30.12 in 10.0 mi SE 6.9 mph - N/A   Clear
5:53 AM 59.0 °F 57.0 °F 93% 30.12 in 9.0 mi SE 9.2 mph - N/A   Clear
6:53 AM 60.1 °F 57.0 °F 90% 30.14 in 8.0 mi SE 10.4 mph - N/A   Clear
7:53 AM 62.1 °F 57.9 °F 86% 30.15 in 10.0 mi SE 6.9 mph - N/A   Clear
8:53 AM 66.0 °F 57.9 °F 75% 30.15 in 10.0 mi SE 12.7 mph - N/A   Clear
9:53 AM 70.0 °F 57.9 °F 65% 30.15 in 10.0 mi SSE 15.0 mph - N/A   Clear
10:53 AM 75.0 °F 55.9 °F 51% 30.13 in 10.0 mi SSE 17.3 mph 26.5 mph N/A   Clear
11:53 AM 77.0 °F 55.9 °F 48% 30.10 in 10.0 mi South 16.1 mph 24.2 mph N/A   Mostly Cloudy
12:53 PM 79.0 °F 57.0 °F 47% 30.06 in 10.0 mi South 21.9 mph 29.9 mph N/A   Partly Cloudy
1:53 PM 77.0 °F 57.9 °F 52% 30.04 in 10.0 mi SSE 23.0 mph 32.2 mph N/A   Clear
2:53 PM 77.0 °F 57.0 °F 50% 30.02 in 10.0 mi SSE 19.6 mph 31.1 mph N/A   Partly Cloudy
3:53 PM 75.9 °F 59.0 °F 56% 30.04 in 10.0 mi SSE 20.7 mph 27.6 mph N/A   Overcast
4:53 PM 73.9 °F 59.0 °F 59% 30.04 in 10.0 mi SSE 16.1 mph 24.2 mph N/A   Scattered Clouds
5:53 PM 73.0 °F 57.9 °F 59% 30.04 in 10.0 mi SSE 19.6 mph 25.3 mph N/A   Partly Cloudy
6:53 PM 72.0 °F 57.9 °F 61% 30.05 in 10.0 mi SSE 13.8 mph 25.3 mph N/A   Overcast
7:53 PM 71.1 °F 59.0 °F 66% 30.07 in 10.0 mi SSE 16.1 mph 25.3 mph N/A   Overcast
8:53 PM 70.0 °F 57.9 °F 65% 30.07 in 10.0 mi SSE 16.1 mph 26.5 mph N/A   Mostly Cloudy
9:36 PM 69.8 °F 59.0 °F 68% 30.09 in 10.0 mi SSE 11.5 mph 24.2 mph N/A   Overcast
9:53 PM 70.0 °F 59.0 °F 68% 30.07 in 10.0 mi SSE 12.7 mph 20.7 mph N/A   Overcast
10:53 PM 70.0 °F 60.1 °F 71% 30.06 in 10.0 mi SSE 16.1 mph 24.2 mph N/A   Overcast
11:53 PM 68.0 °F 62.1 °F 81% 30.06 in 4.0 mi South 9.2 mph 18.4 mph 0.03 in Rain Heavy Rain